{"data":{"norad_id":57354,"intl_designator":"2023-099AC","name":"STARLINK-6293","alt_names":[],"object_type":"PAYLOAD","status":"ACTIVE","operator":null,"country":"US","launch_date":"2023-07-16","launch_site_code":"AFETR","launch_vehicle":null,"mission":null,"orbit_class":"UNKNOWN","rcs_meters":null,"size_class":null,"mass_kg":null,"dimensions":null,"purposes":["comms"],"wikipedia_slug":null,"has_3d_model":false,"image_url":null,"decayed_at":null,"tle_current":{"epoch":"2026-09-20T21:36:28.836864Z","epoch_age_seconds":89742,"freshness":"FRESH","line1":"1 57354U 23099AC  26263.90033376  .00000027  00000+0  10502-4 0  9997","line2":"2 57354  43.0003 219.2817 0000883 250.3352 109.7405 15.27576927176051","mean_motion":15.27576927,"eccentricity":8.83e-5,"inclination_deg":43.0003,"raan_deg":219.2817,"arg_perigee_deg":250.3352,"mean_anomaly_deg":109.7405,"bstar":1.0502e-5,"rev_number":17605,"period_min":94.266938348434,"perigee_km":482.4524541778,"apogee_km":483.66414126737,"semimajor_km":6861.1952977226,"source":"CELESTRAK","updated_at":"2026-09-21T09:00:33.601322Z"}}}